Location: Arbon
(43.0005°N, 0.7472°E)
Time: 11:13:42
(UTC+00:00)

Vanguard 1 - Pass Details

Date: 29 November 2020
Orbit: 648 x 3834 km, 34.3° (Epoch: 23 January)

Event Time Altitude Azimuth Distance (km) Brightness Sun altitude
Rises 10:54:28 0° 273° (W) 5,215 13.6 24.3°
Reaches altitude 10° 10:57:59 10° 263° (W) 4,626 13.5 24.5°
Maximum altitude 11:09:11 30° 209° (SSW) 4,306 14.4 24.9°
Drops below altitude 10° 11:25:31 10° 159° (SSE) 6,735 15.9 25.2°
Sets 11:32:20 0° 150° (SSE) 7,936 15.7 25.3°
